User: anonymous   Login
Location: Unspecified
(0.0000°N, 0.0000°E)
Time: 17:29:06
(UTC+02:00)
Language:

Meteor 2-8 Rocket - Orbit

View from above orbital plane
View from above orbital plane
View from above satellite
View from above satellite

Ground track
Ground track

The orbit data is extracted from the following two-line orbital elements,

1 13114U 82025B   15144.45767767  .00000045  00000-0  26473-4 0  9996
2 13114 082.5406 083.3116 0015805 108.2662 029.9030 13.84643015675964
Epoch (UTC): 24 May 2015 10:59:03
Eccentricity: 0.0015805
inclination: 82.5406°
perigee height: 936 km
apogee height: 959 km
right ascension of ascending node: 83.3116°
argument of perigee: 108.2662°
revolutions per day: 13.84643015
mean anomaly at epoch: 29.9030°
orbit number at epoch: 67596

The dashed part of the orbit path shows where the satellite is in the earth's shadow,  

DLR